Location: Central Falls
(41.8900°N, 71.3929°W)
Time: 02:50:51
(UTC+00:00)

Tiros 1 - Pass Details

Date: 09 December 2023
Orbit: 625 x 658 km, 48.4° (Epoch: 01 March)

Event Time Altitude Azimuth Distance (km) Brightness Sun altitude
Rises 11:04:18 0° 291° (WNW) 2,986 - -10.4°
Reaches altitude 10° 11:06:46 10° 299° (WNW) 2,075 - -9.9°
Exits shadow 11:07:15 13° 301° (WNW) 1,905 8.9 -9.8°
Maximum altitude 11:11:19 41° 10° (N) 953 7.9 -9.1°
Drops below altitude 10° 11:15:51 10° 81° (E) 2,069 10.7 -8.4°
Sets 11:18:18 0° 89° (E) 2,976 11.9 -7.9°
